Location: Tel Aviv
(32.0670°N, 34.7670°E)
Time: 12:18:24
(UTC+03:00)

Transit 2A - Pass Details

Date: 30 January 2022
Orbit: 598 x 960 km, 66.7° (Epoch: 20 May)

Event Time Altitude Azimuth Distance (km) Brightness Sun altitude
Rises 08:36:38 0° 182° (S) 3,417 9.9 21.4°
Reaches altitude 10° 08:39:12 10° 174° (S) 2,533 9.5 21.8°
Maximum altitude 08:44:37 38° 108° (ESE) 1,385 8.8 22.7°
Drops below altitude 10° 08:50:21 10° 43° (NE) 2,683 8.9 23.6°
Sets 08:53:07 0° 35° (NE) 3,643 9.4 24.0°
